Location: Boncourt
(49.6160°N, 3.9448°E)
Time: 06:47:53
(UTC+00:00)

Cosmos 1461 - Visible Passes

Search period start: 30 September 2023 00:00
Search period end: 10 October 2023 00:00
Orbit: 491 x 629 km, 65.0° (Epoch: 29 September)

Date Brightness Start Highest point End Pass type
(mag) Time Alt. Az. Time Alt. Az. Time Alt. Az.
30 Sep 5.5 01:49:48 20° NNE 01:49:48 20° NNE 01:51:17 10° NE visible
30 Sep 5.0 03:25:42 17° NW 03:26:16 18° NNW 03:29:21 10° NNE visible
30 Sep 5.5 05:05:22 10° NNW 05:06:37 11° N 05:07:52 10° NNE visible
01 Oct 5.6 01:48:14 18° NNE 01:48:14 18° NNE 01:49:32 10° NNE visible
01 Oct 5.2 03:24:08 15° NNW 03:24:47 16° NNW 03:27:33 10° NNE visible
01 Oct 5.5 05:03:56 10° NNW 05:05:13 11° N 05:06:29 10° NNE visible
02 Oct 5.7 01:46:38 17° NNE 01:46:38 17° NNE 01:47:46 10° NNE visible
02 Oct 5.3 03:22:31 14° NNW 03:23:19 14° NNW 03:25:45 10° NNE visible
02 Oct 5.6 05:02:21 10° NNW 05:03:47 11° N 05:05:12 10° NNE visible
03 Oct 5.8 01:44:59 15° NNE 01:44:59 15° NNE 01:45:57 10° NNE visible
03 Oct 5.4 03:20:53 12° NNW 03:21:50 13° NNW 03:23:55 10° NNE visible
03 Oct 5.6 05:00:38 10° NNW 05:02:19 12° N 05:03:58 10° NNE visible
04 Oct 5.9 01:43:19 14° NNE 01:43:19 14° NNE 01:44:05 10° NNE visible
04 Oct 5.5 03:19:13 11° NNW 03:20:19 12° N 03:22:06 10° NNE visible
04 Oct 5.5 04:58:50 10° NNW 05:00:48 13° NNE 05:02:45 10° NE visible
05 Oct 6.0 01:41:38 13° NNE 01:41:38 13° NNE 01:42:12 10° NNE visible
05 Oct 5.6 03:17:31 10° NNW 03:18:48 11° N 03:20:17 10° NNE visible
05 Oct 5.5 04:56:58 10° NNW 04:59:15 14° NNE 05:01:30 10° NE visible
06 Oct 6.1 01:39:55 11° NNE 01:39:55 11° NNE 01:40:16 10° NNE visible
06 Oct 5.7 03:15:59 10° NNW 03:17:15 11° N 03:18:32 10° NNE visible
06 Oct 5.5 04:55:04 10° NNW 04:57:40 15° NNE 05:00:13 10° ENE visible
07 Oct 6.2 01:38:11 11° NNE 01:38:11 11° NNE 01:38:19 10° NNE visible
07 Oct 5.7 03:14:31 10° NNW 03:15:41 11° N 03:16:51 10° NNE visible
07 Oct 5.4 04:53:08 10° NNW 04:56:02 17° NNE 04:58:52 10° ENE visible
08 Oct 5.7 03:12:51 10° NNW 03:14:05 11° N 03:15:19 10° NNE visible
08 Oct 5.3 04:51:09 10° NNW 04:54:22 19° NNE 04:57:28 10° ENE visible
09 Oct 5.7 03:11:03 10° NNW 03:12:28 11° N 03:13:52 10° NNE visible
09 Oct 5.1 04:49:10 10° NNW 04:52:38 22° NNE 04:55:59 10° E visible
